Regional Weather Roundup
Issued by NWS

Home | Current Version | Previous Version | Text Only | Print | Product List | Glossary On
Versions: 1 2 3 4 5 6 7 8 9 10 11 12 13 14 15 16 17 18 19 20 21 22 23 24 25 26 27 28 29 30 31 32 33 34 35 36 37 38 39 40 41 42 43 44 45 46 47 48 49 50
000
ASUS42 KTBW 241010
RWRFL
FLORIDA REGIONAL WEATHER ROUNDUP
NATIONAL WEATHER SERVICE TAMPA BAY RUSKIN FL
600 AM EDT THU JUL 24 2014

NOTE: "FAIR" INDICATES FEW OR NO CLOUDS BELOW 12,000 FEET WITH NO
SIGNIFICANT WEATHER AND/OR OBSTRUCTIONS TO VISIBILITY.


FLZ001>010-012>015-112-114-115-241100-
PANHANDLE FLORIDA

CITY           SKY/WX    TMP DP  RH WIND       PRES   REMARKS
PENSACOLA      CLEAR     73  71  93 SW3       29.98R
PENSACOLA NAS  CLEAR     73  72  96 CALM      29.98R
MILTON NAS     CLEAR     71  68  90 CALM      29.99R FOG
CRESTVIEW      CLEAR     69  68  96 CALM      30.01R FOG
DUKE FIELD     FAIR      71  71 100 CALM      29.99S
VALPARAISO     PTCLDY    74  72  92 N2        29.98R
MARY ESTHER    MOCLDY    78  71  78 W3        29.97S
PANAMA CITY    FAIR      74  71  91 CALM      29.98S
TYNDALL AFB    PTCLDY    80  75  83 W7        30.00R
APALACHICOLA   CLEAR     77  73  87 CALM      30.00R

STATION/POSITION SKY/WX   TEMP    WIND        PRES    WAVE   SWELL
                          AIR SEA DIR/SP/G            HT/PER HT/PER
                          (F)     (DEG/KT/KT) (MB)    (FT/S) (FT/S)
30.1N   87.6W              81 82  240/  8/ 10 1015.2R   1/ 3
29.2N   88.2W              82 84  210/ 12/ 14 1014.9S
PANAMA CITY BEAC           81 84  250/ 10/ 12 1015.3R
CAPE SAN BLAS    NOT AVBL
TOWER C                    82     260/  9/  9 1015.6S
28.5N   84.5W              83 84  220/  4/  4 1016.1R   1

$$
FLZ011-016>038-118-127-128-134-139-239-241100-
NORTH FLORIDA

CITY           SKY/WX    TMP DP  RH WIND       PRES   REMARKS
MARIANNA       CLEAR     73  73 100 CALM      30.00R
TALLAHASSEE    MOCLDY    72  69  90 CALM      30.01R
PERRY          CLEAR     70  70 100 CALM      30.02R FOG
CROSS CITY       N/A     73  71  93 CALM      30.01R
GAINESVILLE    CLEAR     72  70  93 CALM      30.02R
MAYPORT NAS    PTCLDY    78  73  84 S5        30.01R
JACKSONVILLE   PTCLDY    73  72  96 W3        30.00R
JAX NAS        CLEAR     79  73  82 SW5       30.02R
JAX CRAIG      CLEAR     75  72  90 S3        30.01R
JAX CECIL      CLEAR     72  72 100 CALM      30.02R
FERNANDINA BEA FAIR      77  72  83 W5        29.99S
ST AUGUSTINE   CLEAR     77  74  90 CALM      30.03R

STATION/POSITION SKY/WX   TEMP    WIND        PRES    WAVE   SWELL
                          AIR SEA DIR/SP/G            HT/PER HT/PER
                          (F)     (DEG/KT/KT) (MB)    (FT/S) (FT/S)
SHELL POINT                77      CALM  /  1   N/A
KEATON BEACH               82     280/  6/  8 1016.0R
CEDAR KEY                  83     280/  4/  5 1016.6R
FERNANDINA                 78 85  230/  5/  6 1015.2R
30.7N   81.3W                 84                N/A     2/ 4
MAYPORT                    80 86  280/  5/  7   N/A
31.4N   80.9W              82 84  270/ 14/ 16 1014.9R   3/ 4   2/11
ST AUGUSTINE               77     240/  3/  4 1016.6S

$$
FLZ040-043>046-052-053-057-058-063-144-241100-
INTERIOR CENTRAL FLORIDA

CITY           SKY/WX    TMP DP  RH WIND       PRES   REMARKS
OCALA          CLEAR     72  64  78 CALM      30.03R
LEESBURG       CLOUDY    80  75  84 W3        30.03R
SANFORD        CLEAR     78  76  93 NW3       30.02R
ORLANDO EXEC   CLEAR     79  76  90 CALM      30.02R
ORLANDO INTL   PTCLDY    76  75  97 S3        30.03R
WINTER HAVEN   CLEAR     76  74  93 SW3       30.04R
LAKELAND       CLEAR     75  75 100 CALM      30.03S
BARTOW         FAIR      73 N/A N/A CALM      30.04R
OKEECHOBEE       N/A     73  73 100 MISG      30.03S

$$
FLZ041-047-054-059-064-141-147-241100-
EAST CENTRAL FLORIDA

CITY           SKY/WX    TMP DP  RH WIND       PRES   REMARKS
DAYTONA BEACH  MOCLDY    78  76  93 CALM      30.02R
DELAND         SUNNY     77  75  94 CALM      30.03R
JFK SPACE CTR  CLEAR     78  78 100 SW5       30.02R
CAPE CANAVERAL CLEAR     77  74  90 S5        30.01S
PATRICK AFB    CLEAR     79  75  89 S7        30.02R
MELBOURNE      CLEAR     77  75  93 S6        30.02R
VERO BEACH     CLEAR     76  76 100 S6        30.03R
FT PIERCE      CLEAR     77  74  90 S3        30.02S
STUART         PTCLDY    77  75  94 CALM      30.04S

STATION/POSITION SKY/WX   TEMP    WIND        PRES    WAVE   SWELL
                          AIR SEA DIR/SP/G            HT/PER HT/PER
                          (F)     (DEG/KT/KT) (MB)    (FT/S) (FT/S)
28.5N   80.2W              82 83  210/ 10/ 10 1016.6R
28.9N   78.5W              83 83  210/ 14/ 16 1016.9F   4/ 7   2/ 7
TRIDENT PIER               81 87  190/  8/  9 1015.8S
28.4N   80.5W                 85                N/A     2/ 4
27.6N   80.2W                 83                N/A     2/ 3

$$
FLZ050-056-061-142-242-148-248-149-249-151-251-155-255-
160-260-241100-
WEST CENTRAL FLORIDA

CITY           SKY/WX    TMP DP  RH WIND       PRES   REMARKS
CRYSTAL RIVER  PTSUNNY   73  72  94 CALM      30.02R
INVERNESS      FAIR      73  72  94 CALM      30.03R FOG
BROOKSVILLE    CLEAR     75  73  93 CALM      30.03R
ZEPHYRHILLS    FAIR      72  72 100 CALM      30.04R
CLEARWATER     CLOUDY    81  76  84 CALM      30.02R
TAMPA INTL     MOCLDY    82  76  81 CALM      30.02R
TAMPA EXEC     CLOUDY    77  73  88 CALM      30.03R FOG
PLANT CITY     PTCLDY    77 N/A N/A CALM      30.04S
MACDILL AFB    MOCLDY    79  79 100 S1        30.02R
ST PETERSBURG  MOCLDY    82  76  81 W5        30.01R
SARASOTA       CLEAR     79  75  87 CALM      30.00R
VENICE         FAIR      77  75  94 SE5       30.02S

STATION/POSITION SKY/WX   TEMP    WIND        PRES    WAVE   SWELL
                          AIR SEA DIR/SP/G            HT/PER HT/PER
                          (F)     (DEG/KT/KT) (MB)    (FT/S) (FT/S)
CEDAR KEY                  83     280/  4/  5 1016.6R
28.5N   84.5W              83 84  220/  4/  4 1016.1R   1
27.3N   84.3W                 85                N/A     1/ 8
CLEARWATER BEACH           84 89   70/  3/  4 1016.0R
MIDDLE TAMPA BAY           82      40/  3/  6 1016.5R
VENICE                     80 88   90/  4/  5 1015.8S

$$
FLZ066-069-070-075>078-162-262-165-265-241100-
SOUTHWEST FLORIDA AND KEYS

CITY           SKY/WX    TMP DP  RH WIND       PRES   REMARKS
PUNTA GORDA    CLEAR     77  74  90 S6        30.04R
FT MYERS       MOCLDY    78  74  87 S5        30.02R
SOUTHWEST INTL PTCLDY    77  75  93 W6        30.03R
NAPLES         PTCLDY    79  78  97 E6        30.02R
MARATHON       PTCLDY    84  76  76 SE6       30.01R
KEY WEST NAS   PTCLDY    84  74  71 SE8       30.01R
KEY WEST INTL  PTCLDY    85  75  72 SE10      30.01R

STATION/POSITION SKY/WX   TEMP    WIND        PRES    WAVE   SWELL
                          AIR SEA DIR/SP/G            HT/PER HT/PER
                          (F)     (DEG/KT/KT) (MB)    (FT/S) (FT/S)
VENICE                     80 88   90/  4/  5 1015.8S
NAPLES                     79 92   90/  4/  5 1017.0R
DRY TORTUGAS               85     130/  9/ 11 1015.8F
NW FL BAY                  86     170/  8/ 11 1016.3F
SAND KEY                   84     150/ 10/ 14 1016.0R
SOMBRERO KEY               84     150/  9/ 10 1016.7S
LONG KEY                   85 87  160/  8/  9 1016.8S
MOLASSES REEF              84 86  170/ 12/ 13 1016.3R

$$
FLZ067-068-071>074-168-172>174-241100-
SOUTHEAST FLORIDA

CITY           SKY/WX    TMP DP  RH WIND       PRES   REMARKS
W PALM BEACH   PTCLDY    78  74  87 CALM      30.03R
FT LAUDER-EXEC PTCLDY    78  77  96 CALM      30.03R
FT LAUDERDALE  MOCLDY    80  76  87 CALM      30.03R
POMPANO BEACH  LGT RAIN  80  76  87 CALM      30.03R
PEMBROKE PINES CLEAR     78  76  93 CALM      30.04S
OPA LOCKA        N/A     81  76  84 CALM      30.03S
MIAMI          PTCLDY    80  76  87 CALM      30.03R
WEST KENDALL   PTCLDY    80  76  87 CALM      30.03R
HOMESTEAD      CLEAR     77  75  95 W2        30.03R

STATION/POSITION SKY/WX   TEMP    WIND        PRES    WAVE   SWELL
                          AIR SEA DIR/SP/G            HT/PER HT/PER
                          (F)     (DEG/KT/KT) (MB)    (FT/S) (FT/S)
PORT EVERGLADES            80     330/  6/  9 1016.8
VIRGINIA KEY               84 87  170/  4/  5   N/A
LAKE WORTH                 81 82              1016.6R
FOWEY ROCKS                84 86  150/ 10/ 11 1016.7S
SETTLEMENT POINT           83     150/ 10/ 13 1017.3R

$$



USA.gov is the U.S. government's official web portal to all federal, state and local government web resources and services.